Вернуться в каталог

DELTA 1 DEB

АктивенLEO
NORAD 18870·DEBRIS·🇺🇸 United States

Запущен Nov 6, 1973 с Vandenberg Space Force Base

Loading…

Ближайшие Пролёты (ближайшие 24 часа)

TLE

СвежийSource: Space-Track

Эпоха: Sep 14, 2026, 00:35 UTC

1 18870U 73086HA  26257.02479741  .00000606  00000-0  70234-2 0  9994
2 18870 101.7708 173.2064 0357789 350.7874   8.6722 11.95526281593671

Отслеживайте DELTA 1 DEB в реальном времени с AllMySat

Download on the App Store